TimeEST,TemperatureF,Dew PointF,Humidity,Sea Level PressureIn,VisibilityMPH,Wind Direction,Wind SpeedMPH,Gust SpeedMPH,PrecipitationIn,Events,Conditions,WindDirDegrees,DateUTC
12:15 AM,15.8,15.8,100,30.24,10.0,Calm,Calm,-,N/A,,Unknown,0,2013-02-22 05:15:00
12:35 AM,17.6,15.8,93,30.24,10.0,Calm,Calm,-,N/A,,Unknown,0,2013-02-22 05:35:00
12:55 AM,17.6,15.8,93,30.23,10.0,East,3.5,-,N/A,,Unknown,100,2013-02-22 05:55:00
1:15 AM,17.6,15.8,93,30.24,10.0,Calm,Calm,-,N/A,,Unknown,0,2013-02-22 06:15:00
1:35 AM,17.6,15.8,93,30.22,10.0,Calm,Calm,-,N/A,,Unknown,0,2013-02-22 06:35:00
1:55 AM,19.4,15.8,86,30.23,10.0,East,4.6,-,N/A,,Unknown,80,2013-02-22 06:55:00
2:15 AM,19.4,15.8,86,30.22,10.0,East,6.9,-,N/A,,Unknown,80,2013-02-22 07:15:00
2:35 AM,19.4,15.8,86,30.24,10.0,Calm,Calm,-,N/A,,Unknown,0,2013-02-22 07:35:00
2:55 AM,19.4,17.6,93,30.25,10.0,Calm,Calm,-,N/A,,Unknown,0,2013-02-22 07:55:00
3:15 AM,19.4,17.6,93,30.22,10.0,Calm,Calm,-,N/A,,Unknown,0,2013-02-22 08:15:00
3:35 AM,21.2,17.6,86,30.24,10.0,ESE,5.8,-,N/A,,Unknown,110,2013-02-22 08:35:00
3:55 AM,21.2,17.6,86,30.21,10.0,East,8.1,-,N/A,,Unknown,100,2013-02-22 08:55:00
4:35 AM,21.2,17.6,86,30.20,10.0,ESE,3.5,-,N/A,,Unknown,110,2013-02-22 09:35:00
4:55 AM,23.0,17.6,80,30.20,10.0,ESE,9.2,16.1,N/A,,Unknown,110,2013-02-22 09:55:00
5:15 AM,23.0,17.6,80,30.20,10.0,East,9.2,-,N/A,,Unknown,100,2013-02-22 10:15:00
5:35 AM,23.0,17.6,80,30.19,10.0,ESE,8.1,-,N/A,,Unknown,110,2013-02-22 10:35:00
5:55 AM,24.8,17.6,74,30.21,10.0,ESE,8.1,-,N/A,,Unknown,120,2013-02-22 10:55:00
6:15 AM,24.8,17.6,74,30.19,10.0,ESE,12.7,17.3,N/A,,Unknown,110,2013-02-22 11:15:00
6:35 AM,24.8,17.6,74,30.18,10.0,ESE,9.2,-,N/A,,Unknown,110,2013-02-22 11:35:00
6:55 AM,26.6,19.4,74,30.15,10.0,ESE,9.2,17.3,N/A,,Unknown,110,2013-02-22 11:55:00
7:15 AM,26.6,19.4,74,30.16,10.0,ESE,9.2,-,N/A,,Unknown,120,2013-02-22 12:15:00
7:35 AM,28.4,19.4,69,30.16,10.0,ESE,9.2,17.3,N/A,,Unknown,110,2013-02-22 12:35:00
7:55 AM,28.4,19.4,69,30.14,10.0,SE,12.7,20.7,N/A,,Unknown,140,2013-02-22 12:55:00
8:35 AM,28.4,19.4,69,30.12,10.0,SE,10.4,20.7,N/A,,Unknown,130,2013-02-22 13:35:00
8:55 AM,28.4,19.4,69,30.12,10.0,ESE,12.7,19.6,N/A,,Unknown,120,2013-02-22 13:55:00
9:15 AM,28.4,19.4,69,30.12,10.0,SE,6.9,16.1,N/A,,Unknown,130,2013-02-22 14:15:00
9:35 AM,28.4,21.2,74,30.11,10.0,SE,11.5,18.4,N/A,,Unknown,130,2013-02-22 14:35:00
9:55 AM,30.2,21.2,69,30.11,10.0,SE,11.5,19.6,N/A,,Unknown,140,2013-02-22 14:55:00
10:15 AM,30.2,21.2,69,30.10,10.0,SE,12.7,18.4,N/A,,Unknown,130,2013-02-22 15:15:00
10:35 AM,28.4,21.2,74,30.11,10.0,SE,10.4,23.0,N/A,,Unknown,140,2013-02-22 15:35:00
10:55 AM,28.4,23.0,80,30.10,5.0,SE,11.5,18.4,N/A,,Unknown,130,2013-02-22 15:55:00
11:15 AM,28.4,24.8,86,30.10,7.0,SE,12.7,20.7,N/A,,Unknown,130,2013-02-22 16:15:00
11:35 AM,28.4,26.6,93,30.09,3.0,SE,10.4,23.0,N/A,,Unknown,140,2013-02-22 16:35:00
11:55 AM,28.4,26.6,93,30.09,10.0,SSE,13.8,24.2,N/A,,Unknown,150,2013-02-22 16:55:00
12:15 PM,28.4,26.6,93,30.08,5.0,SSE,11.5,19.6,N/A,,Unknown,150,2013-02-22 17:15:00
12:35 PM,28.4,26.6,93,30.07,5.0,SSE,10.4,23.0,N/A,,Unknown,150,2013-02-22 17:35:00
12:55 PM,28.4,28.4,100,30.06,2.5,SSE,8.1,21.9,N/A,,Unknown,150,2013-02-22 17:55:00
1:15 PM,28.4,28.4,100,30.06,2.5,SSE,12.7,18.4,N/A,,Unknown,150,2013-02-22 18:15:00
1:35 PM,28.4,28.4,100,30.05,4.0,SSE,12.7,21.9,N/A,,Unknown,150,2013-02-22 18:35:00
1:55 PM,28.4,28.4,100,30.05,4.0,SSE,8.1,18.4,N/A,,Unknown,150,2013-02-22 18:55:00
2:15 PM,28.4,28.4,100,30.04,7.0,SSE,12.7,18.4,N/A,,Unknown,150,2013-02-22 19:15:00
2:35 PM,28.4,28.4,100,30.04,10.0,SE,10.4,17.3,N/A,,Unknown,140,2013-02-22 19:35:00
2:55 PM,28.4,28.4,100,30.04,10.0,SE,9.2,-,N/A,,Unknown,140,2013-02-22 19:55:00
3:15 PM,28.4,28.4,100,30.04,7.0,SE,8.1,-,N/A,,Unknown,140,2013-02-22 20:15:00
3:35 PM,28.4,28.4,100,30.03,10.0,SSE,11.5,19.6,N/A,,Unknown,150,2013-02-22 20:35:00
3:55 PM,30.2,30.2,100,30.03,10.0,SE,11.5,16.1,N/A,,Unknown,130,2013-02-22 20:55:00
4:15 PM,30.2,30.2,100,30.03,10.0,SE,12.7,16.1,N/A,,Unknown,130,2013-02-22 21:15:00
4:35 PM,30.2,30.2,100,30.03,10.0,SE,10.4,17.3,N/A,,Unknown,140,2013-02-22 21:35:00
4:55 PM,30.2,30.2,100,30.03,10.0,SE,10.4,-,N/A,,Unknown,130,2013-02-22 21:55:00
5:15 PM,30.2,30.2,100,30.02,10.0,SE,10.4,17.3,N/A,,Unknown,140,2013-02-22 22:15:00
5:35 PM,30.2,30.2,100,30.02,10.0,ESE,10.4,-,N/A,,Unknown,120,2013-02-22 22:35:00
5:55 PM,30.2,30.2,100,30.03,10.0,SE,9.2,-,N/A,,Unknown,140,2013-02-22 22:55:00
6:15 PM,30.2,30.2,100,30.02,10.0,SE,10.4,17.3,N/A,,Unknown,130,2013-02-22 23:15:00
6:35 PM,30.2,30.2,100,30.03,10.0,SE,12.7,-,N/A,,Unknown,140,2013-02-22 23:35:00
6:55 PM,30.2,30.2,100,30.02,10.0,SE,11.5,-,N/A,,Unknown,130,2013-02-22 23:55:00
7:15 PM,30.2,30.2,100,30.02,10.0,SE,9.2,16.1,N/A,,Unknown,140,2013-02-23 00:15:00
7:35 PM,30.2,30.2,100,30.02,10.0,SE,6.9,-,N/A,,Unknown,140,2013-02-23 00:35:00
7:55 PM,30.2,30.2,100,30.02,10.0,SE,11.5,-,N/A,,Unknown,130,2013-02-23 00:55:00
8:15 PM,30.2,30.2,100,30.02,10.0,ESE,8.1,-,N/A,,Unknown,120,2013-02-23 01:15:00
8:35 PM,30.2,30.2,100,30.02,10.0,SE,8.1,-,N/A,,Unknown,130,2013-02-23 01:35:00
8:55 PM,30.2,30.2,100,30.03,10.0,SE,10.4,-,N/A,,Unknown,140,2013-02-23 01:55:00
9:15 PM,30.2,30.2,100,30.03,10.0,SE,13.8,-,N/A,,Unknown,130,2013-02-23 02:15:00
9:35 PM,30.2,30.2,100,30.02,10.0,SE,11.5,-,N/A,,Unknown,130,2013-02-23 02:35:00
9:55 PM,30.2,30.2,100,30.02,10.0,SE,11.5,19.6,N/A,,Unknown,130,2013-02-23 02:55:00
10:15 PM,30.2,30.2,100,30.03,10.0,SSE,3.5,19.6,N/A,,Unknown,150,2013-02-23 03:15:00
10:35 PM,30.2,30.2,100,30.02,10.0,SE,6.9,-,N/A,,Unknown,130,2013-02-23 03:35:00
10:55 PM,30.2,30.2,100,30.02,10.0,Calm,Calm,-,N/A,,Unknown,0,2013-02-23 03:55:00
11:15 PM,30.2,30.2,100,30.02,10.0,SSE,5.8,-,N/A,,Unknown,150,2013-02-23 04:15:00
11:35 PM,30.2,30.2,100,30.01,10.0,SE,6.9,-,N/A,,Unknown,140,2013-02-23 04:35:00
11:55 PM,30.2,30.2,100,30.02,10.0,SSE,8.1,-,N/A,,Unknown,150,2013-02-23 04:55:00